Location: Unspecified
(0.0000°N, 0.0000°E)
Time: 01:27:04
(UTC+00:00)

Explorer 11/Cluster Stage 4 - Pass Details

Date: 21 November 2019
Orbit: 467 x 1259 km, 28.8° (Epoch: 11 December)

Event Time Altitude Azimuth Distance (km) Brightness Sun altitude
Rises 01:06:05 0° 317° (NW) 4,021 - -62.1°
Reaches altitude 10° 01:09:08 10° 326° (NW) 3,133 - -61.5°
Maximum altitude 01:16:18 35° 29° (NNE) 1,906 - -60.3°
Drops below altitude 10° 01:23:34 10° 91° (E) 3,195 - -58.9°
Exits shadow 01:25:08 - 96° (E) 3,644 10.3 -58.6°
Sets 01:26:42 0° 100° (E) 4,109 10.7 -58.3°
